When you browse on this site, cookies collect data to enhance your experience and personalize the content and advertising you see.
Visit our Privacy Policy to learn more. By continuing to use the site, you agree to this use of cookies and data.

Previsão horária em Posele

Hoje, 4 Agosto, Terça-feira

Tempo Temperatura Precipitação Vento Pressão Humidade
00:00 +16°C° 0 mm 2 m/s 741 mmHg 87%
01:00 +16°C° 0 mm 2 m/s 741 mmHg 90%
02:00 +16°C° 0 mm 2 m/s 741 mmHg 94%
03:00 +16°C° 0 mm 2 m/s 741 mmHg 94%
04:00 +16°C° 0 mm 2 m/s 741 mmHg 93%
05:00 +16°C° 0 mm 2 m/s 741 mmHg 93%
06:00 +17°C° 0 mm 2 m/s 742 mmHg 88%
07:00 +19°C° 0 mm 2 m/s 742 mmHg 82%
08:00 +20°C° 0 mm 3 m/s 742 mmHg 76%
09:00 +21°C° 0 mm 3 m/s 742 mmHg 70%
10:00 +22°C° 0 mm 4 m/s 742 mmHg 65%
11:00 +25°C° 0 mm 4 m/s 742 mmHg 59%
12:00 +25°C° 0 mm 4 m/s 742 mmHg 56%
13:00 +25°C° 0 mm 4 m/s 742 mmHg 54%
14:00 +26°C° 0 mm 4 m/s 742 mmHg 51%
15:00 +26°C° 0 mm 4 m/s 742 mmHg 54%
16:00 +25°C° 0 mm 3 m/s 742 mmHg 57%
17:00 +25°C° 0 mm 3 m/s 741 mmHg 59%
18:00 +22°C° 0 mm 3 m/s 742 mmHg 65%
19:00 +21°C° 0 mm 3 m/s 742 mmHg 72%
20:00 +19°C° 0 mm 3 m/s 742 mmHg 78%
21:00 +19°C° 0 mm 3 m/s 742 mmHg 79%
22:00 +18°C° 0 mm 3 m/s 742 mmHg 80%
23:00 +18°C° 0 mm 4 m/s 742 mmHg 81%

Amanhã, 5 Agosto, Quarta-feira

Tempo Temperatura Precipitação Vento Pressão Humidade
00:00 +18°C° 0 mm 4 m/s 742 mmHg 82%
01:00 +18°C° 0 mm 4 m/s 742 mmHg 83%
02:00 +17°C° 0 mm 4 m/s 742 mmHg 84%
03:00 +17°C° 0 mm 4 m/s 742 mmHg 83%
04:00 +17°C° 0 mm 4 m/s 742 mmHg 83%
05:00 +18°C° 0 mm 4 m/s 741 mmHg 82%
06:00 +18°C° 0 mm 4 m/s 742 mmHg 79%
07:00 +19°C° 0 mm 4 m/s 742 mmHg 76%
08:00 +20°C° 0 mm 4 m/s 742 mmHg 73%
09:00 +20°C° 0 mm 4 m/s 743 mmHg 73%
10:00 +21°C° 0 mm 3 m/s 743 mmHg 72%
11:00 +21°C° 0 mm 3 m/s 743 mmHg 71%
12:00 +21°C° 0 mm 3 m/s 743 mmHg 72%
13:00 +21°C° 0 mm 3 m/s 744 mmHg 72%
14:00 +22°C° 0 mm 3 m/s 744 mmHg 72%
15:00 +21°C° 0 mm 2 m/s 744 mmHg 76%
16:00 +20°C° 0 mm 2 m/s 744 mmHg 80%
17:00 +21°C° 0 mm 1 m/s 744 mmHg 84%
18:00 +20°C° 0 mm 1 m/s 744 mmHg 88%
19:00 +20°C° 0 mm 1 m/s 744 mmHg 91%
20:00 +17°C° 0 mm 0 m/s 745 mmHg 95%
21:00 +16°C° 0 mm 0 m/s 745 mmHg 96%
22:00 +16°C° 0 mm 0 m/s 745 mmHg 97%
23:00 +15°C° 0 mm 0 m/s 745 mmHg 98%

Depois de amanhã, 6 Agosto, Quinta-feira

Tempo Temperatura Precipitação Vento Pressão Humidade
00:00 +15°C° 0 mm 0 m/s 746 mmHg 97%
01:00 +16°C° 0 mm 1 m/s 746 mmHg 97%
02:00 +16°C° 0 mm 1 m/s 746 mmHg 97%
03:00 +16°C° 0 mm 1 m/s 746 mmHg 97%
04:00 +15°C° 0 mm 1 m/s 746 mmHg 97%
05:00 +15°C° 0 mm 1 m/s 746 mmHg 97%
06:00 +18°C° 0 mm 1 m/s 747 mmHg 90%
07:00 +19°C° 0 mm 1 m/s 747 mmHg 83%
08:00 +21°C° 0 mm 1 m/s 747 mmHg 76%
09:00 +21°C° 0 mm 2 m/s 747 mmHg 67%
10:00 +23°C° 0 mm 2 m/s 748 mmHg 58%
11:00 +24°C° 0 mm 3 m/s 748 mmHg 48%
12:00 +24°C° 0 mm 3 m/s 748 mmHg 47%
13:00 +25°C° 0 mm 3 m/s 748 mmHg 46%
14:00 +25°C° 0 mm 3 m/s 748 mmHg 45%
15:00 +24°C° 0 mm 3 m/s 748 mmHg 48%
16:00 +24°C° 0 mm 3 m/s 748 mmHg 50%
17:00 +22°C° 0 mm 3 m/s 748 mmHg 53%
18:00 +20°C° 0 mm 2 m/s 748 mmHg 61%
19:00 +18°C° 0 mm 2 m/s 748 mmHg 69%
20:00 +16°C° 0 mm 1 m/s 748 mmHg 77%
21:00 +16°C° 0 mm 1 m/s 749 mmHg 77%
22:00 +15°C° 0 mm 1 m/s 749 mmHg 78%
23:00 +14°C° 0 mm 1 m/s 749 mmHg 79%

7 Agosto, Sexta-feira

Tempo Temperatura Precipitação Vento Pressão Humidade
00:00 +14°C° 0 mm 1 m/s 749 mmHg 81%
01:00 +14°C° 0 mm 1 m/s 749 mmHg 83%
02:00 +13°C° 0 mm 1 m/s 749 mmHg 85%
03:00 +14°C° 0 mm 1 m/s 749 mmHg 86%
04:00 +14°C° 0 mm 1 m/s 750 mmHg 87%
05:00 +14°C° 0 mm 1 m/s 750 mmHg 88%
06:00 +16°C° 0 mm 1 m/s 750 mmHg 80%
07:00 +19°C° 0 mm 1 m/s 750 mmHg 72%
08:00 +21°C° 0 mm 1 m/s 750 mmHg 65%
09:00 +22°C° 0 mm 1 m/s 750 mmHg 60%
10:00 +23°C° 0 mm 2 m/s 750 mmHg 56%
11:00 +24°C° 0 mm 2 m/s 750 mmHg 52%
12:00 +24°C° 0 mm 2 m/s 750 mmHg 53%
13:00 +24°C° 0 mm 2 m/s 750 mmHg 54%
14:00 +24°C° 0 mm 2 m/s 750 mmHg 55%
15:00 +24°C° 0 mm 2 m/s 750 mmHg 58%
16:00 +24°C° 0 mm 2 m/s 750 mmHg 60%
17:00 +23°C° 0 mm 2 m/s 749 mmHg 63%
18:00 +20°C° 0 mm 2 m/s 749 mmHg 71%
19:00 +20°C° 0 mm 1 m/s 749 mmHg 79%
20:00 +18°C° 0 mm 1 m/s 749 mmHg 87%
21:00 +16°C° 0 mm 1 m/s 749 mmHg 90%
22:00 +16°C° 0 mm 1 m/s 749 mmHg 92%
23:00 +15°C° 0 mm 1 m/s 749 mmHg 94%

8 Agosto, Sábado

Tempo Temperatura Precipitação Vento Pressão Humidade
00:00 +14°C° 0 mm 0 m/s 749 mmHg 94%
01:00 +13°C° 0 mm 0 m/s 749 mmHg 94%
02:00 +13°C° 0 mm 0 m/s 749 mmHg 95%
03:00 +13°C° 0 mm 0 m/s 749 mmHg 94%
04:00 +13°C° 0 mm 0 m/s 749 mmHg 94%
05:00 +13°C° 0 mm 0 m/s 749 mmHg 94%
06:00 +15°C° 0 mm 0 m/s 749 mmHg 87%
07:00 +19°C° 0 mm 1 m/s 749 mmHg 79%
08:00 +21°C° 0 mm 1 m/s 749 mmHg 71%
09:00 +22°C° 0.1 mm 1 m/s 749 mmHg 66%
10:00 +23°C° 0.1 mm 1 m/s 749 mmHg 61%
11:00 +24°C° 0.1 mm 2 m/s 748 mmHg 56%
12:00 +25°C° 0 mm 2 m/s 748 mmHg 53%
13:00 +25°C° 0 mm 2 m/s 748 mmHg 51%
14:00 +25°C° 0 mm 2 m/s 747 mmHg 48%
15:00 +25°C° 0 mm 2 m/s 747 mmHg 51%
16:00 +25°C° 0 mm 2 m/s 746 mmHg 53%
17:00 +24°C° 0 mm 2 m/s 746 mmHg 56%
18:00 +22°C° 0 mm 1 m/s 746 mmHg 62%
19:00 +20°C° 0 mm 1 m/s 746 mmHg 69%
20:00 +18°C° 0 mm 1 m/s 746 mmHg 75%
21:00 +16°C° 0 mm 1 m/s 746 mmHg 78%
22:00 +16°C° 0 mm 2 m/s 746 mmHg 82%
23:00 +15°C° 0 mm 2 m/s 746 mmHg 85%

9 Agosto, Domingo

Tempo Temperatura Precipitação Vento Pressão Humidade
00:00 +14°C° 0 mm 2 m/s 746 mmHg 87%
01:00 +13°C° 0 mm 1 m/s 746 mmHg 89%
02:00 +13°C° 0 mm 1 m/s 746 mmHg 90%
03:00 +12°C° 0 mm 1 m/s 746 mmHg 91%
04:00 +12°C° 0 mm 1 m/s 745 mmHg 91%
05:00 +12°C° 0 mm 1 m/s 745 mmHg 91%
06:00 +14°C° 0 mm 1 m/s 745 mmHg 82%
07:00 +16°C° 0 mm 1 m/s 745 mmHg 73%
08:00 +19°C° 0 mm 1 m/s 745 mmHg 64%
09:00 +20°C° 0 mm 1 m/s 745 mmHg 59%
10:00 +21°C° 0 mm 1 m/s 745 mmHg 53%
11:00 +22°C° 0 mm 1 m/s 744 mmHg 47%
12:00 +23°C° 0 mm 2 m/s 744 mmHg 46%
13:00 +23°C° 0 mm 2 m/s 744 mmHg 45%
14:00 +23°C° 0 mm 2 m/s 743 mmHg 43%
15:00 +23°C° 0 mm 2 m/s 743 mmHg 47%
16:00 +21°C° 0 mm 2 m/s 742 mmHg 51%
17:00 +21°C° 0 mm 2 m/s 742 mmHg 55%
18:00 +19°C° 0 mm 2 m/s 742 mmHg 63%
19:00 +17°C° 0 mm 2 m/s 742 mmHg 71%
20:00 +15°C° 0 mm 1 m/s 742 mmHg 79%
21:00 +14°C° 0 mm 1 m/s 742 mmHg 82%
22:00 +13°C° 0 mm 1 m/s 742 mmHg 85%
23:00 +13°C° 0 mm 1 m/s 742 mmHg 88%
Mostrar mais